Hoffman, NC

2:39 AM EST on December 11, 2016 (GMT -0500)
Mackall Army Air Field

Weather History for KHFF - November, 2013

Change the Weather History Date:

Friday, November 15, 2013

  Actual Average Record
Temperature  
Mean Temperature 42 °F -  
Max Temperature 57 °F 63 °F 79 °F (2011)
Min Temperature 26 °F 40 °F 25 °F (2014)
Degree Days  
Heating Degree Days 24    
Moisture  
Dew Point 39 °F    
Average Humidity 85    
Maximum Humidity 98    
Minimum Humidity 41    
Precipitation  
Precipitation 0.01 in - - ()
Sea Level Pressure  
Sea Level Pressure 30.31 in    
Wind  
Wind Speed 2 mph (North)    
Max Wind Speed 6 mph    
Max Gust Speed -    
Visibility 12 miles    
Events Rain    
Averages and records for this station are not official NWS values.
T = Trace of Precipitation, MM = Missing Value Source: NWS Daily Summary

Daily Weather History Graph

Daily Weather History Graph

Search for Another Location

Airport or City:

Trip Planner

Search our weather history database for the weather conditions in past years. The results will help you decide how hot, cold, wet, or windy it might be!

Date:

Astronomy

Nov. 15, 2013 Rise Set
Actual Time 6:52 AM EST 5:12 PM EST
Civil Twilight 6:25 AM EST 5:39 PM EST
Nautical Twilight 5:55 AM EST 6:09 PM EST
Astronomical Twilight 5:25 AM EST 6:39 PM EST
Moon 4:04 PM EST (11/15) 4:51 AM EST (11/15)
Length of Visible Light 11h 13m
Length of Day
10h 19m
Waxing Gibbous, 96% of the Moon is Illuminated
Nov 15
Waxing Gibbous
Nov 17
Full
Nov 25
Last Quarter
Dec 2
New
Dec 9
First Quarter

Hourly Weather History & Observations

Time (EST) Temp. Dew Point Humidity Pressure Visibility Wind Dir Wind Speed Gust Speed Precip Events Conditions
12:56 AM 26.6 °F 25.7 °F 96% 30.37 in 12.0 mi North 2.3 mph - N/A   Clear
1:56 AM 26.4 °F 25.3 °F 96% 30.36 in 12.0 mi North 2.3 mph - N/A   Clear
2:56 AM 27.0 °F 26.1 °F 96% 30.37 in 12.0 mi South 1.2 mph - N/A   Clear
3:56 AM 27.0 °F 26.1 °F 96% 30.36 in 12.0 mi NNE 2.3 mph - N/A   Clear
4:56 AM 28.6 °F 27.1 °F 94% 30.36 in 12.0 mi NNW 1.2 mph - N/A   Clear
5:56 AM 28.8 °F 27.5 °F 95% 30.37 in 12.0 mi WNW 1.2 mph - N/A   Clear
6:56 AM 30.0 °F 28.6 °F 94% 30.38 in 12.0 mi Calm Calm - N/A   Mostly Cloudy
7:56 AM 33.3 °F 30.9 °F 91% 30.38 in 12.0 mi North 1.2 mph - N/A   Clear
8:56 AM 37.9 °F 32.2 °F 80% 30.38 in 12.0 mi NNE 2.3 mph - N/A   Clear
9:56 AM 46.2 °F 33.4 °F 61% 30.39 in 12.0 mi Variable 2.3 mph - N/A   Clear
10:56 AM 53.1 °F 35.4 °F 51% 30.38 in 12.0 mi Variable 2.3 mph - N/A   Partly Cloudy
11:56 AM 57.2 °F 33.4 °F 41% 30.35 in 12.0 mi Calm Calm - N/A   Mostly Cloudy
12:52 PM 57.2 °F 37.4 °F 48% 30.31 in 12.0 mi SE 4.6 mph - N/A Rain Light Rain
12:56 PM 57.7 °F 40.8 °F 53% 30.32 in 10.0 mi South 3.5 mph - N/A Rain Light Rain
1:56 PM 52.2 °F 49.1 °F 89% 30.29 in 11.0 mi NNE 5.8 mph - 0.01 in Rain Light Rain Showers
2:00 PM 51.8 °F 48.2 °F 88% 30.27 in 12.0 mi NNE 5.8 mph - N/A   Mostly Cloudy
2:56 PM 54.5 °F 49.8 °F 84% 30.26 in 12.0 mi East 2.3 mph - N/A   Scattered Clouds
3:56 PM 55.4 °F 50.5 °F 84% 30.26 in 12.0 mi Variable 1.2 mph - N/A   Mostly Cloudy
4:56 PM 54.9 °F 50.9 °F 86% 30.25 in 12.0 mi North 1.2 mph - N/A   Overcast
5:56 PM 51.3 °F 49.5 °F 94% 30.24 in 12.0 mi Variable 1.2 mph - N/A   Mostly Cloudy
6:56 PM 46.6 °F 45.7 °F 97% 30.25 in 12.0 mi NNW 2.3 mph - N/A   Partly Cloudy
7:56 PM 46.9 °F 46.4 °F 98% 30.25 in 12.0 mi West 2.3 mph - N/A   Mostly Cloudy
8:56 PM 48.7 °F 47.8 °F 97% 30.25 in 12.0 mi NNW 3.5 mph - N/A   Mostly Cloudy
9:56 PM 48.7 °F 47.7 °F 96% 30.25 in 12.0 mi NW 3.5 mph - N/A   Mostly Cloudy
10:56 PM 49.6 °F 47.5 °F 92% 30.26 in 12.0 mi NNW 2.3 mph - N/A   Mostly Cloudy
11:51 PM 50.0 °F 48.2 °F 94% 30.22 in 9.0 mi East 3.5 mph - N/A Rain Light Rain
11:56 PM 49.6 °F 47.7 °F 93% 30.23 in 12.0 mi SE 3.5 mph - N/A Rain Light Rain